Погода в Ассагао

Индия     15°32′45″N   73°47′08″E
темп.,
°C
ветер,
м/с
пор.,
м/с
влажн.,
%
обл.,
%
осадки,
мм/ч
давл.,
гПа
погр.,
м
7 мая, пт
пт723:30+30з11736 1.1 1010273
02:30+30ссз347399 0.0 1007417
05:30+29ссз4475100 0.1 1008398
08:30+29ссв237195 0.0 1011409
11:30+31зсз43666 0.0 1010625
14:30+30з767041 0.0 1008443
17:30+30ссз2270100 0.3 1008547
20:30+29ссв477780 0.1 1010706
8 мая, сб
сб823:30+27всв448361 0.1 1010198
02:30+28ссв127288 0.0 1007170
05:30+28ссз237196 0.0 1008241
08:30+29ююз116596 0.0 1010314
11:30+31зюз336981 0.0 1009545
14:30+30з6572100 0.0 1007562
17:30+30зсз557084 0.0 1006484
20:30+30сз567898 0.0 1008664
9 мая, вс
вс923:30+29сз457610 0.0 1008457
02:30+29ссз34766 0.0 1006471
05:30+29с237660 0.0 1007402
08:30+30ссз237091 0.0 1009511
11:30+30з6572100 0.0 1009645
14:30+31з666984 0.0 1006563
17:30+30в1167100 0.4 1008626
20:30+29с237410 0.0 1008527
10 мая, пн
пн1023:30+29ссв227517 0.0 1008310
02:30+29ссз3375100 0.0 1006522
05:30+28ссв3378100 0.0 1007453
08:30+29св127399 0.0 1009439
11:30+30з547434 0.0 1009643
14:30+31зсз66696 0.0 1007741
17:30+30зсз66715 0.0 1006873
20:30+30сз56735 0.0 1008896
11 мая, вт
вт1123:30+29сз55745 0.1 1009713
02:30+29сз457565 0.0 1007727
05:30+29сз5674100 0.1 1007840
08:30+30ссз457099 0.1 1009857
11:30+30зсз766717 0.1 1009705
14:30+30зсз776772 0.0 1007692
17:30+30сз7770100 0.0 1006845
20:30+30сз797459 0.0 1007835